Tracking 22124 objects as of 23-Jan-2021
HD Live streaming from Space Station
objects crossing your sky now

EUTE 8 WEST A (AB 2)

Track EUTE 8 WEST A (AB 2) now!
EUTE 8 WEST A (AB 2) is classified as:


NORAD ID: 26927
Int'l Code: 2001-042A
Perigee: 36,260.0 km
Apogee: 36,319.8 km
Inclination: 1.6 °
Period: 1,461.5 minutes
Semi major axis: 42660 km
RCS: 14.2528 m2 (large)
Launch date: September 25, 2001
Source: European Telecommunications Satellite Organization (EUTE)
Launch site: FRENCH GUIANA (FRGUI)

European and American coverage.
aabbcc
Your satellite tracking list
Your tracking list is empty




NASA's NSSDC Master Catalog

Two Line Element Set (TLE):
1 26927U 01042A   21023.50097061 -.00000045  00000-0  00000-0 0  9999
2 26927   1.5730  91.7663 0007004 200.2059  42.1469  0.98527600 70735
Source of the keplerian elements: AFSPC